Theta_e
301 301 301 301 301 301 301 301 301 301 301 302 302 303 303 303 303 304 304 303 303 303 303 303 301 300 300 301 301 300 298 297 298 298 303 310 310 309 307 307 307 306 304 303 303 303 304 305 307 309 311 312 312 314 312 310 315 325 329 329 330 329 328 329 331 331 332 334 331 327 327 328 330 327 323 322 323 322 323 323 324 326 327 327 327 327 328 329
300 300 300 301 301 301 301 301 301 301 301 302 302 303 303 303 302 302 301 300 300 300 302 302 298 298 300 300 299 297 296 298 299 301 307 310 309 308 307 307 306 305 304 304 305 305 305 304 305 308 310 312 312 313 316 315 315 323 328 327 327 326 327 327 328 329 330 331 330 329 328 328 329 327 323 323 323 323 325 324 325 327 328 328 327 327 329 330
300 300 300 301 301 301 301 301 300 300 300 300 300 301 301 300 299 298 298 298 297 297 298 300 298 297 299 300 298 296 297 298 300 306 309 307 307 308 308 307 305 304 304 304 305 306 307 305 304 307 310 312 313 312 314 317 319 322 325 326 326 324 326 326 326 328 328 330 330 330 329 328 329 327 325 323 323 324 326 325 325 327 327 328 328 328 329 330
300 300 300 300 300 300 299 299 298 298 297 297 298 298 298 297 297 297 297 297 297 296 296 299 299 298 299 299 296 297 298 298 303 308 306 301 302 304 306 305 303 302 302 304 305 306 307 307 306 307 309 312 313 313 313 315 320 323 323 325 324 323 325 325 326 327 327 329 329 329 329 330 330 329 327 322 323 327 325 323 326 326 325 327 328 328 329 330
300 300 300 299 298 297 297 297 296 296 296 296 296 296 296 296 296 296 296 296 296 296 295 297 299 300 300 298 296 298 298 299 305 307 302 299 299 301 302 301 301 301 301 303 305 306 307 308 309 308 309 312 312 313 313 312 316 319 321 323 322 323 323 323 325 326 328 328 328 329 330 331 330 329 328 324 325 328 324 323 325 325 326 327 328 328 329 330
300 300 299 298 296 295 296 296 295 295 295 295 296 295 296 296 296 296 296 296 296 296 296 296 298 301 301 298 298 299 299 299 302 302 300 299 299 299 300 300 300 301 302 303 304 306 308 309 311 310 311 312 312 313 313 313 313 315 319 321 321 322 322 323 323 324 326 328 329 329 329 330 329 329 329 325 325 327 326 324 323 324 325 326 328 329 329 330
299 299 299 297 295 295 295 295 295 295 295 295 295 295 295 295 296 296 296 296 296 296 297 296 299 302 300 298 299 299 299 299 299 299 300 299 299 299 299 299 299 301 302 302 303 304 307 310 311 311 311 311 312 313 313 313 312 313 315 317 320 321 322 323 323 323 324 326 327 328 329 329 329 329 328 326 327 329 328 325 324 324 324 325 327 329 328 328
299 299 298 296 296 296 294 294 295 295 295 295 295 295 295 295 295 295 296 296 296 297 297 297 301 302 300 300 301 300 299 300 299 299 300 300 300 300 300 299 300 300 301 302 303 303 306 309 311 312 311 311 312 313 313 313 313 312 312 314 317 320 321 322 323 323 323 323 325 328 330 329 329 329 326 325 328 329 328 327 326 326 327 325 325 328 329 329
299 298 296 296 296 295 294 294 294 295 295 295 295 295 295 294 295 295 296 297 297 298 298 299 302 301 299 301 301 301 300 299 299 300 301 302 302 302 301 301 301 301 301 301 303 303 305 308 311 312 311 311 312 313 313 313 313 312 311 311 314 317 320 322 322 322 322 322 323 327 329 329 329 329 328 327 328 329 328 328 327 326 327 327 326 326 329 329
296 296 295 295 295 294 294 294 294 295 295 295 295 295 295 294 295 295 296 296 297 298 298 300 301 299 299 301 301 302 300 298 299 300 301 301 302 302 302 302 302 303 302 301 301 302 303 306 309 310 311 312 313 313 313 313 313 313 312 311 313 315 317 320 322 322 322 321 322 326 328 327 327 329 330 328 327 329 328 327 326 326 326 327 327 326 327 329
295 295 296 295 294 294 294 294 294 295 295 295 295 295 295 294 295 295 296 295 296 298 299 299 299 299 300 301 301 302 300 299 300 300 300 300 301 301 302 302 303 303 304 301 300 301 302 304 306 309 312 312 312 313 313 313 313 312 312 311 312 313 315 318 319 321 322 322 322 323 325 326 327 328 329 327 327 327 326 326 326 326 326 327 328 329 329 328
296 297 297 295 294 294 294 294 294 294 295 295 295 295 295 295 295 295 295 295 296 298 298 298 298 299 300 300 301 301 300 300 300 300 301 301 301 300 300 302 302 303 305 303 300 300 301 303 305 307 310 312 312 313 313 313 313 312 312 311 311 312 315 316 317 320 322 323 322 322 324 325 326 327 326 326 327 326 326 326 325 325 325 326 328 330 331 331
296 296 295 294 294 294 294 294 294 294 295 295 295 295 295 295 295 295 295 295 297 298 297 298 298 299 300 300 300 300 301 301 300 301 301 301 301 300 300 301 302 303 304 304 302 301 301 302 304 306 308 310 311 312 312 311 311 312 312 312 312 312 313 315 317 319 321 323 323 323 326 326 324 324 324 325 325 325 325 325 325 325 325 325 326 329 331 333
297 296 294 294 294 294 294 294 294 294 294 295 295 296 296 296 295 295 295 296 297 297 297 298 299 300 300 301 300 300 301 300 301 302 301 301 301 300 300 301 303 303 303 304 304 303 302 302 303 305 307 309 310 311 312 311 313 314 313 312 313 312 311 314 318 319 320 323 322 324 327 327 324 324 323 323 323 323 324 323 324 324 324 325 325 327 329 332
297 296 295 295 294 294 294 294 294 294 295 296 296 296 296 295 295 296 296 297 298 297 298 299 300 301 301 301 300 300 301 300 300 302 302 302 301 300 300 301 303 303 303 304 304 304 305 304 304 306 307 308 309 310 311 312 314 316 315 313 312 312 311 312 317 319 320 322 321 324 327 326 324 324 323 323 323 322 323 322 323 323 324 325 325 326 327 329
297 296 295 295 294 294 294 294 294 295 296 296 296 296 296 296 296 297 297 298 298 298 299 301 301 301 302 301 300 300 301 300 301 302 302 302 301 300 300 301 302 303 303 304 305 304 305 305 305 306 307 308 309 310 311 313 313 314 315 313 311 311 310 310 314 318 319 321 322 324 326 326 325 324 323 323 323 321 322 322 321 322 322 323 324 325 325 327
296 295 294 294 294 294 294 294 295 296 296 297 297 296 296 296 297 297 298 298 298 299 301 301 300 302 304 302 300 301 301 301 301 302 302 302 301 301 301 302 302 303 302 303 304 305 305 306 306 307 308 308 309 310 311 313 314 312 313 314 313 312 311 310 312 316 319 320 322 324 325 325 326 324 322 323 323 322 321 321 321 321 321 322 323 324 325 326
296 295 294 294 294 294 294 294 295 296 296 297 297 297 297 297 298 298 298 298 299 301 303 301 300 303 304 301 300 301 300 300 301 302 303 302 302 302 302 302 302 303 303 303 305 305 305 306 307 308 309 308 309 310 311 314 314 312 312 313 313 313 313 312 312 317 321 321 322 324 325 325 326 325 322 322 323 322 322 322 322 322 321 322 322 324 325 326
296 295 294 295 294 294 294 294 295 296 296 297 297 297 297 297 298 298 297 299 299 301 302 301 300 302 302 300 301 300 300 300 301 302 303 302 302 302 302 303 304 304 304 305 306 306 306 306 306 307 308 308 309 309 310 312 312 312 310 310 312 313 314 315 315 319 321 321 322 324 325 325 325 326 324 322 322 323 323 322 323 323 323 322 322 323 324 325
296 296 295 295 295 294 294 294 295 296 296 297 297 296 298 298 299 299 298 298 299 299 300 299 300 300 300 301 301 300 300 301 301 301 302 302 302 301 303 304 304 304 304 305 306 306 306 306 306 307 307 309 309 308 308 308 309 310 309 309 313 316 316 317 317 318 318 321 324 322 323 325 324 325 325 323 322 323 324 324 324 324 323 323 322 323 323 324
296 296 295 295 295 294 294 294 295 296 296 297 296 296 298 298 300 301 300 298 298 298 298 299 300 300 300 300 300 300 301 301 301 301 302 302 301 302 304 304 304 304 304 304 305 305 304 305 306 307 307 308 308 307 306 306 306 308 311 311 313 315 317 317 317 317 315 318 324 323 323 324 323 325 324 323 323 323 324 324 324 324 323 323 323 323 324 325
296 296 295 295 295 294 294 294 296 296 296 297 296 297 298 298 299 300 300 300 299 298 298 299 300 300 300 300 300 300 300 302 302 301 302 302 302 303 303 303 303 303 303 303 304 304 304 305 306 307 307 307 306 306 306 306 306 307 310 311 312 314 316 316 316 317 313 315 323 325 324 324 323 324 323 323 323 322 322 323 324 325 324 324 323 323 325 326
296 296 296 295 295 294 294 295 296 296 297 297 296 296 298 298 298 299 299 300 300 298 297 299 300 300 299 300 300 299 300 302 302 301 302 302 302 303 303 302 303 303 303 303 304 304 305 306 306 306 307 307 307 307 307 308 307 306 307 308 310 313 315 316 315 314 312 313 317 321 321 321 322 324 323 323 322 322 323 322 323 324 324 324 324 324 326 327
297 296 296 295 295 294 294 295 296 296 297 297 296 297 298 298 298 299 299 299 299 298 297 299 300 300 299 299 299 299 300 301 301 301 301 302 302 303 303 303 303 304 303 302 303 304 304 305 305 305 307 307 307 308 308 308 308 307 307 308 308 310 313 315 314 312 314 316 313 315 318 317 320 324 324 323 322 322 323 323 323 323 324 325 325 325 326 327
296 296 295 295 295 294 294 296 296 297 297 297 297 297 297 297 297 299 299 298 299 299 298 298 300 300 299 299 299 299 301 301 301 301 301 302 303 304 304 303 303 303 302 302 304 304 304 305 305 305 306 307 307 308 308 308 309 307 306 306 305 308 311 312 313 311 314 318 312 312 318 318 320 323 323 324 324 323 322 323 323 323 323 324 324 326 326 327
295 295 295 294 294 294 294 296 297 297 297 298 298 298 298 297 298 300 299 301 302 300 298 299 300 300 299 299 299 299 301 302 300 301 301 301 303 304 304 303 302 302 302 302 303 304 304 305 305 305 306 306 307 308 308 307 309 307 306 305 303 305 308 310 310 311 314 316 312 311 317 318 320 321 320 322 325 324 323 323 323 322 322 322 322 324 326 326
294 294 293 293 294 294 294 297 297 296 297 298 298 298 297 297 299 299 300 304 303 297 298 300 299 299 298 298 299 300 301 301 300 300 300 301 303 303 303 303 303 302 301 301 303 305 305 305 305 305 306 306 307 309 308 307 310 310 307 307 306 304 306 307 307 310 312 312 309 312 316 316 317 318 317 320 323 323 323 324 323 322 321 322 322 322 324 325
293 293 292 293 293 294 295 297 298 297 297 297 298 298 297 298 299 298 301 303 298 296 299 300 299 298 298 298 298 299 299 300 300 300 300 301 303 302 303 304 303 303 302 302 305 306 304 305 305 304 306 307 308 309 308 306 310 311 307 309 309 306 305 305 306 308 309 309 307 309 314 315 315 318 318 319 321 321 321 322 323 322 321 322 323 322 322 322
292 292 293 293 294 295 296 297 298 297 297 298 298 298 298 299 298 297 303 302 295 296 299 299 299 298 298 298 298 298 298 299 300 300 300 302 301 302 303 304 303 302 302 302 305 305 304 304 304 303 305 307 308 309 308 307 309 310 308 308 309 308 306 305 305 306 307 307 306 306 310 312 312 317 319 317 319 319 318 319 319 318 319 320 322 322 323 323
292 293 293 294 295 296 296 297 298 298 298 298 298 298 299 299 299 303 305 298 295 297 298 297 298 298 297 297 297 298 297 298 298 298 300 301 301 301 302 302 302 302 302 303 304 305 304 304 303 304 305 306 307 306 306 307 309 310 310 310 309 310 310 307 306 307 306 306 306 304 307 310 309 314 318 318 321 320 317 317 316 315 315 317 318 319 320 321
292 293 293 294 295 296 297 298 298 298 298 298 298 299 298 297 302 306 302 295 295 298 298 298 298 298 297 296 297 298 297 297 297 297 299 300 301 301 301 302 302 302 302 302 302 303 305 305 305 304 304 305 306 307 306 306 307 310 311 311 310 311 311 309 309 308 305 307 309 304 305 307 306 311 317 318 318 319 317 317 317 316 313 314 316 316 316 317
293 294 294 294 295 296 297 297 298 298 298 298 298 298 299 300 301 301 298 296 297 298 298 298 298 298 296 296 297 297 296 298 297 296 298 300 301 301 301 301 301 301 301 301 301 302 304 306 305 304 304 305 307 308 308 307 307 310 311 310 311 311 310 311 311 309 307 309 309 304 302 304 304 306 311 311 311 314 316 315 316 315 313 313 315 315 315 315
294 294 294 295 296 296 297 297 298 298 298 299 297 297 303 307 302 297 297 299 299 297 298 298 298 297 296 297 298 296 296 299 297 296 297 299 300 301 301 300 300 301 301 301 301 301 302 304 304 304 305 304 306 308 308 308 308 309 310 310 311 310 311 312 312 312 311 311 309 304 301 305 307 306 306 304 305 308 309 310 312 313 314 315 316 316 317 317
294 294 295 296 296 296 297 297 298 298 298 298 297 298 304 304 298 296 298 299 298 297 298 298 297 297 297 297 297 296 297 299 298 296 297 299 300 300 301 300 299 300 300 300 301 300 301 303 303 303 302 303 305 306 306 307 307 309 310 310 311 310 310 311 311 312 311 310 309 305 305 310 311 309 308 306 305 306 306 307 309 310 311 313 314 314 315 315
294 295 295 296 297 297 297 298 297 298 298 297 300 303 303 299 295 295 298 299 298 299 298 297 296 297 297 296 296 297 297 299 298 297 298 299 299 300 300 300 299 299 300 300 301 301 301 301 302 301 301 303 304 303 304 307 307 308 309 311 311 309 309 311 310 311 310 309 310 309 310 313 311 310 310 308 308 307 305 305 306 306 307 309 310 309 309 311
294 295 296 296 297 297 297 298 298 299 297 298 304 305 301 299 295 294 298 299 299 298 298 297 296 298 297 294 296 297 296 297 298 298 298 298 298 300 300 300 299 297 299 301 301 301 301 301 302 301 302 305 302 300 303 306 307 308 309 310 309 307 308 309 310 310 309 309 310 310 312 312 311 311 309 307 309 306 304 304 304 304 305 306 307 306 307 308
294 295 296 296 297 297 297 297 298 298 297 299 306 303 297 297 297 296 299 299 298 297 298 298 296 297 297 295 296 297 297 298 298 297 298 298 298 299 299 299 299 297 298 300 301 301 301 301 301 301 303 302 299 299 303 304 304 308 309 307 307 307 308 308 309 309 309 310 311 310 311 311 311 313 309 307 309 307 306 306 304 303 304 305 305 305 306 306
293 295 296 297 297 297 297 298 298 298 297 300 302 299 295 296 296 296 298 298 298 297 297 298 297 296 296 296 297 297 297 298 297 297 298 298 298 299 299 299 298 297 297 298 300 300 300 302 301 300 301 300 299 302 305 304 303 306 307 306 306 308 309 308 309 309 308 309 311 310 310 311 312 311 309 308 308 307 306 306 305 305 304 303 304 305 305 306
293 295 296 296 297 297 297 298 297 296 299 301 299 296 295 296 296 296 298 298 298 298 297 298 297 295 296 297 297 297 297 298 297 297 297 297 298 298 298 298 298 297 296 298 300 299 299 301 301 300 300 299 301 304 304 302 303 304 305 306 307 308 308 309 309 308 307 308 310 311 310 311 311 308 307 308 308 307 306 305 305 304 303 303 304 304 305 305
293 294 295 296 297 297 296 297 296 297 299 298 295 296 296 297 297 297 298 298 297 298 298 298 297 296 297 298 298 297 298 298 297 297 297 297 298 298 296 296 297 297 296 297 298 299 299 300 299 299 300 300 301 302 301 300 303 305 305 304 305 306 307 307 307 307 308 307 308 309 307 309 312 309 307 308 307 306 305 304 304 303 302 303 304 304 304 304
293 295 296 295 296 297 296 296 295 295 296 295 294 296 297 298 298 297 296 296 296 297 298 297 298 298 298 299 299 298 298 298 297 297 298 298 298 297 296 295 295 296 297 297 298 299 299 299 298 298 299 299 299 299 298 298 301 305 305 302 302 304 305 304 305 306 306 305 306 306 306 307 311 311 309 308 305 303 303 302 302 302 302 303 303 302 303 302
295 297 297 295 296 297 296 296 293 293 296 296 295 296 297 297 297 295 294 295 294 295 296 297 298 298 298 298 298 298 298 297 297 298 298 298 298 298 296 294 294 295 296 298 298 299 299 298 298 298 298 298 298 298 296 296 301 304 303 301 301 302 302 301 301 303 302 302 304 306 306 307 308 310 308 305 301 300 301 301 301 301 301 301 301 301 301 301
295 296 296 295 296 296 296 296 294 294 296 295 293 293 294 295 294 294 293 294 294 295 296 298 298 297 297 297 297 298 298 297 298 299 299 298 299 298 296 294 293 293 296 297 298 299 298 297 297 297 297 297 299 299 297 297 301 302 301 301 301 301 300 299 300 301 301 302 303 304 305 306 307 308 304 300 298 299 300 300 300 300 300 300 300 300 300 300
294 294 294 294 294 295 296 298 296 294 295 294 292 292 294 294 293 293 294 294 295 296 296 298 297 297 296 295 295 297 297 297 298 298 298 297 298 297 295 294 292 292 294 296 297 298 299 298 297 296 296 298 300 302 300 299 300 299 298 299 300 300 300 300 301 302 301 301 301 303 304 303 304 305 300 298 298 299 299 299 299 299 299 300 300 300 300 300
293 293 292 292 294 295 295 295 294 294 294 294 293 293 294 294 293 293 293 294 293 294 296 297 297 296 294 292 294 295 295 295 296 296 295 295 296 295 294 293 291 291 293 295 296 298 299 299 297 295 295 297 299 300 299 298 298 298 298 299 299 299 299 299 300 300 300 299 299 302 302 301 300 300 298 298 299 298 298 299 299 299 299 299 299 299 300 300
292 293 292 292 293 294 293 292 292 294 294 294 294 293 292 294 293 291 292 293 292 291 293 295 295 294 292 291 294 294 293 293 294 294 293 292 294 294 293 291 290 291 294 296 296 297 298 298 298 297 296 296 297 297 297 298 298 298 298 298 298 299 299 299 299 299 299 298 298 299 300 299 299 298 298 298 298 298 298 298 299 299 299 299 299 299 299 299
291 292 291 291 292 292 290 290 290 291 292 292 292 292 292 293 293 291 291 292 291 290 291 291 291 292 291 291 292 292 291 291 292 291 290 291 292 292 291 290 290 293 296 295 294 296 297 296 296 297 297 297 297 297 297 298 298 298 298 298 297 297 298 298 298 298 299 298 298 298 298 298 298 298 298 298 298 298 298 298 299 299 298 298 298 298 299 299
291 291 289 289 291 291 290 289 289 289 290 290 291 291 292 293 292 292 292 291 290 290 290 290 290 289 290 289 290 291 291 291 291 290 290 291 291 290 290 290 291 292 293 292 292 293 294 294 294 295 296 296 296 296 296 296 296 296 296 296 296 296 297 297 297 297 298 298 298 298 298 298 298 298 298 298 298 298 298 298 298 297 297 298 298 298 298 298
290 290 289 289 289 290 289 288 289 289 290 290 291 291 292 293 292 291 290 289 290 290 289 290 290 288 289 289 289 290 290 289 289 289 290 291 290 289 290 291 291 291 290 290 290 290 292 294 295 293 293 292 293 293 294 294 293 293 294 294 295 296 296 297 297 297 298 298 298 298 298 298 298 298 298 298 297 297 296 296 295 295 296 296 297 297 298 298
290 290 289 288 288 289 289 288 288 290 291 290 291 291 291 291 291 290 288 289 290 290 289 291 291 288 288 288 288 289 290 289 289 289 289 290 289 289 290 291 291 290 289 289 290 289 290 292 293 291 291 290 291 291 292 293 293 293 293 294 295 295 295 296 296 296 297 297 297 297 297 298 297 297 297 295 294 293 293 293 293 294 295 295 296 297 297 298
291 290 289 289 290 290 289 288 287 290 293 291 291 292 291 290 290 289 289 288 288 289 290 290 289 288 288 288 288 288 288 288 288 288 288 288 288 289 290 290 290 289 289 289 289 290 290 291 291 291 290 289 290 292 292 293 293 293 294 294 294 294 295 296 297 297 297 298 297 297 297 297 296 294 293 292 291 290 291 291 292 294 295 295 296 297 297 296
292 291 289 289 291 289 288 287 286 288 292 291 291 291 290 289 288 287 289 289 287 288 289 288 287 288 288 288 288 288 288 288 288 288 288 288 288 288 289 289 288 288 288 288 288 289 291 290 290 290 290 290 292 292 293 293 293 295 297 297 296 295 296 297 297 297 298 297 297 297 297 295 294 292 291 290 290 290 290 291 292 293 294 296 297 296 295 295
Wind_Speed
15 15 15 16 16 16 16 16 15 15 15 16 16 16 17 17 18 18 18 18 19 19 19 19 20 21 21 22 23 25 27 28 29 25 14 14 16 16 13 13 14 14 15 14 12 14 14 14 14 13 14 12 8 8 8 11 14 10 4 7 9 10 11 8 9 8 3 3 3 4 3 2 1 4 4 3 7 11 10 15 16 18 24 20 14 11 10 20
13 13 14 16 16 15 15 15 15 15 15 15 15 16 17 17 18 18 18 18 19 19 19 20 20 20 21 22 23 26 27 28 26 14 7 11 14 15 17 18 17 16 20 19 15 15 15 14 15 14 13 11 9 6 5 8 14 11 4 6 11 11 9 9 10 9 7 7 5 4 2 3 2 4 2 2 5 8 7 10 13 15 21 23 19 13 11 21
12 13 13 14 15 15 15 15 15 15 15 15 15 16 17 17 18 18 18 18 18 18 19 20 19 20 20 21 24 25 26 25 16 9 8 14 14 14 18 21 18 17 19 18 17 15 15 16 15 15 12 10 9 6 6 6 9 13 8 7 12 9 5 11 15 15 16 11 3 6 7 3 5 4 1 3 4 4 7 9 10 15 23 24 21 17 15 23
13 13 13 14 14 14 14 14 14 14 15 15 16 17 17 18 18 18 18 17 18 18 19 19 19 20 20 22 23 24 25 19 7 9 10 18 16 14 17 20 20 21 19 17 17 14 14 15 15 15 11 8 8 7 8 9 6 7 10 10 9 5 7 14 17 17 19 16 10 9 9 9 10 7 4 3 2 3 8 17 19 21 24 24 24 20 18 25
14 14 15 14 13 14 14 14 15 16 17 17 17 17 18 18 17 18 17 17 18 18 19 19 19 19 20 22 22 24 21 9 3 5 14 19 16 15 16 18 19 19 17 15 15 15 14 13 14 12 9 6 5 5 6 12 11 6 9 15 13 9 8 10 15 17 18 17 12 10 10 12 11 8 7 6 5 6 10 17 22 23 20 20 25 23 22 27
14 15 15 14 14 14 14 15 16 17 18 18 19 19 19 18 18 18 18 18 19 19 19 18 18 18 19 22 20 22 16 4 6 12 16 19 17 18 19 19 18 16 14 13 13 14 14 13 11 8 7 6 6 7 5 9 11 7 10 16 19 18 10 6 14 17 17 16 12 10 11 13 12 8 9 10 10 12 14 13 13 16 16 17 22 25 25 28
15 15 15 15 14 14 15 17 17 17 18 18 19 19 19 19 19 19 19 19 19 19 19 18 18 18 19 21 19 20 16 9 15 17 18 21 21 21 21 21 19 17 15 13 11 12 14 13 11 9 7 7 8 10 9 12 14 10 10 13 18 20 16 15 17 16 15 18 17 15 12 12 13 9 7 11 15 20 18 11 9 11 13 15 19 25 29 30
15 14 14 15 15 16 16 17 17 18 18 18 18 19 19 21 20 20 20 19 20 19 19 18 18 18 20 21 18 21 19 15 21 22 20 21 21 22 22 21 19 17 15 13 11 11 13 12 11 10 8 9 8 7 6 8 13 13 12 14 16 18 20 19 21 23 23 20 16 14 12 16 20 13 7 11 16 19 18 14 14 15 15 14 17 25 30 31
14 14 15 15 16 17 17 18 18 18 18 18 18 19 20 22 21 21 20 20 20 18 19 18 16 19 20 19 16 15 15 19 25 21 18 19 20 20 19 18 19 19 16 14 14 12 10 10 10 9 10 15 13 10 8 5 7 9 11 13 14 19 20 18 19 24 27 25 16 9 10 17 21 14 12 19 23 22 21 19 19 18 17 16 18 23 30 34
14 15 15 17 18 17 18 19 18 18 19 18 18 19 20 22 22 21 20 20 20 17 18 16 16 20 20 18 13 7 14 23 22 15 15 17 18 18 17 17 19 20 18 16 16 14 12 10 12 13 13 15 15 14 13 10 9 10 14 14 14 18 18 19 20 19 21 23 19 13 10 14 15 10 11 20 23 25 23 17 14 12 13 16 20 24 28 33
15 15 16 17 18 18 18 18 19 20 19 19 20 20 21 22 21 21 20 20 19 17 17 16 19 21 19 18 10 7 17 22 17 13 14 17 18 18 18 18 19 19 18 17 17 16 14 12 13 14 11 8 10 13 16 19 19 18 18 15 14 15 16 18 18 18 15 12 19 19 13 11 9 9 15 19 18 20 18 12 10 8 9 13 19 26 30 34
15 15 16 17 18 18 18 19 20 21 21 22 21 21 22 21 21 21 19 19 17 16 17 19 21 19 19 18 12 13 21 20 19 18 17 20 22 21 19 19 19 17 17 18 17 16 15 14 13 12 12 9 5 7 11 21 25 22 16 11 12 12 13 15 14 18 14 8 13 14 11 12 12 15 22 26 24 22 19 18 17 16 14 14 17 23 31 35
15 16 17 17 18 18 19 20 21 22 23 23 22 22 22 21 21 19 17 15 13 16 20 19 18 17 18 15 13 21 24 22 25 23 21 25 28 25 20 18 18 16 15 18 17 16 15 14 14 16 17 13 6 7 9 11 16 16 11 8 9 8 10 13 13 16 15 14 13 10 8 14 16 22 27 31 31 25 25 28 28 28 24 20 18 20 28 34
15 16 17 17 17 18 20 21 21 23 24 23 23 22 21 20 19 17 14 11 11 19 20 15 15 16 15 10 14 26 27 26 28 26 27 28 29 26 18 15 16 15 14 16 16 15 14 13 14 16 18 15 10 13 13 6 3 5 6 6 6 7 9 8 10 11 12 17 18 12 10 14 13 17 24 33 32 25 26 30 31 32 31 27 23 21 25 32
15 16 16 16 17 19 20 21 22 24 24 24 22 21 21 20 17 14 10 7 14 20 15 12 15 16 12 8 17 28 29 30 32 30 30 28 27 24 17 15 16 15 13 14 15 14 11 10 12 12 14 16 12 11 8 3 2 1 4 5 5 8 9 6 7 11 12 14 18 15 10 13 13 12 17 24 29 30 29 30 31 31 32 30 28 25 24 27
15 15 15 16 17 19 20 21 23 24 24 24 22 21 20 18 15 10 6 10 17 15 9 13 18 14 5 8 22 30 31 35 35 30 25 21 21 19 17 17 17 15 14 13 14 12 9 9 11 11 11 11 7 6 5 3 3 2 4 5 4 7 8 6 6 11 14 11 12 16 11 9 9 11 19 19 23 30 28 29 32 29 30 30 29 28 26 26
14 14 14 16 17 18 19 22 24 24 26 25 22 21 18 16 12 8 8 14 13 7 7 15 21 11 2 14 31 33 35 36 31 25 18 15 15 15 16 17 17 17 18 15 13 11 9 8 7 7 6 5 3 5 7 6 6 4 4 4 4 5 6 6 6 7 14 12 10 15 15 14 8 5 14 18 22 27 24 26 30 28 29 29 29 28 27 26
14 13 14 14 15 17 19 22 24 25 27 25 23 21 16 13 9 9 11 13 9 5 5 16 22 7 3 21 31 30 37 35 26 22 18 18 17 15 16 17 17 19 17 12 8 7 6 6 4 3 2 3 3 4 7 7 5 6 7 6 5 5 5 5 5 5 10 13 12 12 14 19 15 6 6 11 19 22 21 25 29 27 23 23 25 27 27 28
14 13 13 13 14 17 19 23 23 25 28 24 24 20 12 10 7 8 13 13 12 7 2 13 16 3 7 23 29 28 33 29 22 21 20 21 21 20 18 14 14 13 8 4 2 4 5 5 3 3 2 3 4 5 9 10 8 8 8 7 6 5 6 5 4 5 5 9 11 12 14 16 16 11 8 7 10 15 19 22 24 25 23 22 23 23 25 28
13 12 12 13 14 16 19 22 22 25 27 24 25 18 10 12 7 6 14 15 14 9 4 11 12 7 13 24 28 30 31 25 20 21 21 21 23 24 17 9 8 5 1 1 2 2 3 4 5 5 6 5 3 4 7 10 10 7 5 5 4 3 5 4 5 6 3 3 8 12 15 16 15 12 10 12 10 9 12 14 17 22 25 29 28 23 23 26
13 12 12 12 14 15 18 21 21 24 24 22 24 17 12 13 6 6 15 11 10 11 10 12 12 12 18 23 25 29 30 24 23 24 20 22 24 19 12 7 6 3 1 3 4 4 1 2 5 5 5 3 4 3 5 7 7 5 3 3 3 2 4 4 5 5 4 1 5 9 14 17 17 11 7 11 11 8 9 11 15 21 23 28 34 35 34 31
14 13 12 12 13 14 17 19 19 22 20 18 20 18 15 10 6 4 8 7 6 9 13 15 14 15 21 22 22 29 26 16 21 26 22 24 23 13 9 8 4 3 4 4 3 4 2 5 7 6 4 2 3 4 3 5 6 4 3 2 2 2 2 5 4 5 5 1 3 6 10 12 14 12 8 10 10 10 12 12 15 21 22 23 30 39 41 35
16 14 13 12 12 13 15 16 18 18 16 15 16 16 12 6 6 4 4 6 8 7 13 15 14 17 23 22 23 30 22 8 13 23 25 25 20 14 11 7 3 5 5 3 4 4 3 4 6 4 6 5 5 4 2 3 4 4 4 3 4 1 1 3 3 5 7 3 4 5 6 7 8 8 9 14 16 14 16 17 16 19 22 25 28 35 39 38
18 17 15 14 11 10 13 13 15 15 12 13 14 12 8 4 5 5 5 4 5 7 13 12 12 16 21 24 26 27 19 11 14 21 26 23 19 16 9 4 4 5 4 4 6 7 7 6 4 4 1 4 5 4 2 4 3 3 5 4 4 2 2 4 2 5 8 4 2 5 5 5 5 6 6 9 13 14 17 19 18 17 21 25 26 29 33 36
19 18 16 15 9 8 11 10 12 13 9 11 11 8 7 5 6 7 6 2 2 9 12 10 11 14 20 25 26 23 16 13 17 22 25 20 17 14 6 4 4 3 4 6 5 6 7 8 6 4 3 3 3 3 2 3 2 2 2 4 5 4 3 3 5 5 4 3 4 6 3 5 3 6 6 4 6 8 12 14 17 21 21 21 22 25 28 31
19 19 18 15 8 7 9 7 10 11 6 7 7 6 6 5 7 7 4 4 1 8 11 11 9 11 21 25 27 22 8 10 20 21 23 22 17 10 5 4 2 2 4 4 3 3 4 6 6 6 7 6 4 4 3 4 1 2 1 3 5 5 4 2 3 2 1 3 3 5 0 4 3 4 5 3 6 8 8 8 12 20 21 18 21 25 28 29
19 20 18 13 7 7 7 6 9 8 5 6 5 6 6 5 7 5 2 5 4 6 6 9 8 10 21 25 24 15 2 13 21 20 25 24 17 8 4 4 1 3 3 1 3 1 3 8 4 0 4 7 5 3 4 6 3 1 3 2 3 1 4 5 4 3 2 4 3 3 1 4 4 5 6 4 6 7 7 7 8 14 20 21 22 24 26 29
19 19 15 9 6 7 7 7 8 8 6 6 5 6 6 5 5 2 4 4 4 6 4 7 9 14 27 27 19 13 7 12 11 16 26 21 16 9 4 4 3 6 5 2 4 1 1 4 5 5 2 5 4 3 7 8 3 2 5 4 3 1 3 4 5 4 2 1 4 3 1 2 4 4 4 3 5 6 6 7 6 9 16 22 24 25 25 25
17 15 11 8 6 6 8 8 9 7 6 5 5 6 5 5 4 2 6 2 3 5 4 8 11 17 31 26 14 17 16 7 5 17 23 18 18 13 4 5 5 6 7 3 5 4 2 3 3 4 3 2 3 4 7 8 3 2 6 5 3 1 0 2 3 3 3 2 6 7 1 2 5 3 1 2 4 5 6 6 6 8 14 19 22 25 26 26
14 10 8 7 6 6 7 7 8 6 5 6 5 5 4 4 2 4 5 1 1 5 6 7 8 15 26 17 8 17 15 7 13 21 20 18 21 19 6 6 4 3 4 3 4 6 7 6 3 2 3 2 2 3 1 2 1 2 4 3 2 1 2 2 1 3 4 1 6 10 7 4 4 3 4 3 3 5 5 4 5 7 13 18 21 23 25 27
10 7 6 6 5 5 5 5 6 5 5 6 5 5 3 2 4 6 2 2 1 6 8 5 7 12 16 7 3 14 11 7 15 16 13 13 16 20 13 4 5 4 3 4 5 6 6 4 1 3 4 3 1 2 4 3 2 2 3 2 1 1 2 2 2 3 2 3 7 9 9 7 5 4 2 3 4 3 5 6 7 7 11 19 24 27 29 30
7 5 5 5 5 5 6 5 5 5 6 6 6 5 0 2 5 2 2 4 2 3 4 4 7 9 10 4 2 9 7 5 11 10 6 6 5 10 11 7 7 6 4 7 8 8 5 1 3 4 2 5 5 2 3 3 3 2 1 3 2 0 1 1 1 1 2 4 3 5 6 4 6 7 5 7 8 6 5 5 8 8 12 20 24 27 30 31
5 4 5 6 6 6 7 5 5 5 6 8 7 3 4 5 2 2 2 3 2 3 2 3 6 7 6 5 4 7 4 2 9 10 6 4 4 5 7 8 8 4 3 5 6 8 5 3 7 7 4 6 6 3 3 3 2 1 0 1 2 1 0 2 2 1 1 3 4 1 5 2 5 5 9 12 11 12 15 16 18 18 18 22 24 24 25 27
4 4 5 6 6 7 6 5 5 5 6 8 5 3 6 4 1 2 2 3 3 3 3 2 6 6 3 4 4 6 4 2 7 10 6 5 5 5 6 9 11 6 3 3 2 4 4 4 6 6 5 8 7 4 1 2 1 1 1 1 2 1 0 1 1 1 0 2 4 1 2 3 3 2 5 8 7 10 14 16 18 18 17 17 17 17 17 18
3 3 4 5 7 6 5 5 5 5 7 7 4 5 5 1 2 1 2 4 2 3 5 4 4 4 4 3 4 5 3 2 6 7 5 4 4 4 5 7 10 8 5 4 3 2 1 4 4 6 7 5 8 7 2 1 1 3 1 2 1 1 1 0 0 2 2 2 2 0 1 4 4 3 5 2 2 7 12 14 15 16 17 17 19 21 22 22
2 2 4 5 6 5 4 4 4 6 7 4 5 5 2 4 3 3 2 2 1 2 5 5 4 3 4 4 3 6 3 1 5 5 4 4 3 4 5 4 7 9 5 4 3 3 3 5 6 10 7 2 7 10 4 3 3 2 2 1 1 1 2 0 2 1 3 1 1 2 3 4 2 4 7 7 6 9 13 14 14 18 22 22 21 23 25 24
2 2 4 4 4 4 3 3 3 5 6 3 6 2 3 2 3 5 1 2 2 2 3 3 2 2 3 3 3 7 6 3 4 4 4 4 3 3 4 4 6 9 6 3 1 2 4 6 6 6 5 9 14 10 2 3 3 2 2 3 3 0 2 1 1 1 2 1 1 2 5 4 1 2 6 11 10 9 9 8 9 15 19 19 19 22 24 25
2 1 3 4 4 4 3 2 3 3 3 4 5 2 2 1 2 4 2 3 1 2 3 0 1 1 1 2 3 5 7 5 5 5 3 3 2 2 4 4 6 12 12 6 1 1 3 5 4 2 4 13 15 8 2 4 6 2 2 3 2 2 2 2 0 2 2 1 3 1 4 2 0 1 5 8 8 8 8 9 10 12 14 16 19 23 26 27
2 0 2 4 4 4 3 2 2 2 4 5 2 1 2 2 3 3 3 2 1 0 1 1 2 1 1 2 3 4 5 5 6 4 2 1 2 3 5 4 6 14 17 9 2 2 3 2 3 3 7 10 8 4 3 6 6 3 2 3 2 1 1 1 0 1 1 1 3 2 2 2 2 2 1 2 5 6 8 9 9 10 15 19 21 24 27 29
2 1 3 4 3 4 4 3 4 5 5 3 2 2 1 2 3 2 3 3 0 1 1 1 1 0 1 3 4 2 2 4 4 2 1 0 2 3 6 5 4 11 16 9 3 1 2 2 3 6 8 6 3 2 2 3 4 4 4 5 5 3 1 1 1 1 2 1 2 2 2 3 3 3 4 5 3 4 7 9 8 10 18 24 25 27 30 30
2 1 4 4 3 2 2 4 6 6 3 1 1 1 1 1 2 4 5 4 2 1 1 1 1 1 2 3 2 1 2 4 3 2 2 1 1 1 5 9 7 7 9 6 4 2 1 2 4 6 7 5 4 4 2 2 2 1 3 5 5 4 3 3 2 2 2 1 0 1 3 6 4 4 5 3 2 5 9 10 9 14 21 25 28 30 31 32
3 2 4 5 4 2 2 4 5 3 3 1 1 2 2 2 2 4 5 4 3 2 1 1 1 2 2 2 2 2 3 4 3 2 2 2 2 3 4 15 15 10 6 3 3 2 0 1 3 4 4 6 10 9 4 1 2 3 4 4 4 4 5 4 2 3 3 1 0 0 2 6 4 3 4 2 7 13 16 14 13 17 23 26 28 31 33 34
4 3 4 6 5 3 3 3 4 3 1 2 3 3 2 2 2 3 4 4 3 2 2 1 0 1 1 2 3 3 3 3 4 2 2 2 3 3 4 17 19 12 7 3 3 3 2 0 2 4 4 6 8 6 5 3 3 5 4 4 3 3 3 1 3 3 2 1 1 1 3 6 3 3 3 7 14 19 19 17 17 20 24 26 28 32 34 36
4 4 6 8 8 4 2 2 1 1 2 3 4 3 2 1 2 3 2 2 2 2 1 1 1 2 2 3 3 2 3 3 2 3 2 1 3 5 8 17 19 10 4 3 4 5 3 1 0 3 5 6 7 6 5 5 4 4 2 2 3 3 3 2 1 1 1 2 1 1 3 7 5 4 9 14 15 14 14 17 19 20 24 26 29 31 33 35
3 3 5 10 10 6 6 4 3 2 1 2 3 3 3 2 3 4 2 1 2 2 1 2 2 2 2 4 4 2 3 2 1 4 3 1 5 7 11 20 21 11 9 10 8 5 2 1 0 1 1 2 3 4 3 4 5 2 1 2 3 3 3 2 2 1 2 1 1 1 6 10 12 12 15 16 13 10 12 18 21 22 24 27 28 30 32 33
4 2 4 8 10 12 11 7 4 2 1 2 1 2 1 1 2 4 2 1 4 5 2 2 3 2 3 5 4 3 4 3 2 3 3 4 4 4 13 24 22 13 12 13 10 4 1 1 2 4 4 5 6 7 5 5 7 8 8 7 5 3 3 3 2 2 2 1 2 7 10 13 18 17 15 16 15 12 11 16 22 25 27 28 29 29 29 31
4 1 2 4 5 8 9 8 7 3 1 2 0 1 1 0 3 4 2 1 4 5 2 3 4 3 2 3 3 3 4 4 4 4 5 5 4 5 16 21 14 9 9 11 12 6 0 2 3 6 8 9 9 11 10 8 9 11 12 11 7 6 6 5 6 7 2 1 6 11 8 9 16 16 15 16 15 12 12 15 21 25 26 28 30 30 29 29
4 1 1 2 2 0 2 5 6 4 1 1 1 1 1 1 1 2 1 2 4 3 2 3 4 3 1 1 1 2 4 4 4 4 3 4 4 7 12 10 4 9 10 9 11 7 1 4 3 4 7 9 9 10 10 9 10 10 11 11 10 10 9 9 11 10 6 5 10 11 8 9 16 17 16 16 14 13 15 19 22 25 26 28 30 32 31 30
4 2 1 2 1 2 1 2 3 3 1 0 1 0 1 2 1 2 2 2 4 3 1 1 1 2 1 2 3 1 2 2 4 4 3 3 5 5 6 4 2 10 12 7 7 6 1 3 3 2 6 9 9 11 10 10 11 10 10 10 11 12 12 12 12 10 9 11 14 14 14 16 16 15 15 16 16 16 19 22 25 27 28 28 29 31 31 29
4 2 0 1 1 1 0 2 1 1 1 1 1 2 1 3 2 2 1 2 1 3 1 2 3 2 2 3 3 4 5 4 4 5 4 3 4 2 1 2 2 6 10 5 4 6 3 2 5 5 5 7 8 9 8 8 10 11 11 11 13 14 12 10 10 9 7 10 13 14 16 16 11 7 10 16 19 18 19 23 25 27 30 30 27 26 27 29
4 3 2 1 1 1 1 1 2 2 1 1 2 3 1 2 3 2 2 5 6 3 1 3 3 1 2 4 5 7 9 9 9 12 12 10 9 8 5 4 3 5 7 3 3 4 3 2 5 5 4 5 4 5 8 9 10 11 12 13 13 10 7 5 6 5 5 8 10 10 10 9 5 7 10 16 19 16 15 20 24 27 31 29 24 22 26 30
3 3 2 1 1 1 1 0 2 2 1 2 3 3 2 3 5 3 1 4 6 6 5 4 3 1 2 4 6 8 11 12 14 19 21 21 22 22 20 17 14 9 5 3 3 2 1 2 3 3 3 4 2 5 10 10 8 7 7 7 5 3 3 5 5 5 7 7 7 7 5 3 5 7 8 11 14 14 15 19 23 28 28 22 21 23 27 31
Wind_Direction
15 13 12 12 12 11 10 8 8 7 7 7 5 3 2 358 357 356 355 355 353 351 348 346 344 344 342 339 338 337 339 340 339 341 2 34 19 10 20 6 356 352 342 326 309 299 282 261 259 275 285 291 300 292 271 244 220 207 208 216 222 226 219 196 194 202 197 231 202 177 147 162 283 327 292 279 227 217 209 201 201 206 213 221 228 242 229 201
15 13 11 11 11 11 9 7 5 5 5 3 1 1 359 356 356 355 354 352 351 350 347 346 344 342 340 338 338 339 342 341 344 0 46 35 10 12 20 4 353 345 340 339 336 328 316 289 267 284 298 299 294 277 274 245 215 207 207 218 226 228 213 197 211 215 211 225 202 206 221 167 232 333 330 286 235 208 205 210 208 213 215 220 227 234 222 201
14 12 10 10 9 8 7 6 3 2 0 359 359 358 356 355 354 353 352 349 348 346 344 345 342 340 339 339 340 339 341 343 360 62 55 16 3 356 348 338 333 328 328 332 336 336 329 313 286 287 300 298 281 266 273 251 210 216 218 226 232 231 221 205 213 224 227 237 221 231 255 252 261 303 315 252 258 214 204 215 210 219 221 218 221 225 212 200
12 10 8 5 5 6 5 6 4 2 1 359 358 357 356 353 352 351 349 346 344 342 341 342 340 340 338 340 342 338 340 345 35 88 15 350 339 325 320 318 317 316 318 317 325 331 326 318 299 288 286 278 263 267 265 240 232 231 216 233 244 225 235 217 212 226 232 241 242 240 259 273 274 276 256 232 269 281 235 227 219 222 224 216 217 218 207 200
10 8 5 0 4 6 4 6 4 4 3 0 359 357 355 351 349 348 345 343 341 338 338 339 341 340 337 342 341 338 345 350 62 32 337 331 327 317 314 320 319 316 319 310 312 321 324 320 303 286 265 254 246 262 258 238 252 282 244 251 259 237 238 226 217 228 234 240 243 241 249 257 266 264 248 221 208 253 257 244 231 229 232 222 218 213 204 202
7 4 2 2 4 4 3 5 4 4 2 0 1 358 353 349 346 344 342 341 337 337 336 336 341 339 338 342 339 341 352 348 334 338 323 324 325 320 317 320 323 321 321 312 302 308 322 322 297 268 247 256 240 239 257 257 256 271 263 260 257 249 254 247 229 232 234 237 235 232 242 250 256 261 250 229 222 251 268 267 246 239 245 238 223 211 206 204
4 1 3 3 1 0 3 7 5 3 1 2 1 356 351 346 343 340 339 339 337 338 337 339 342 339 340 340 338 340 338 332 342 337 325 326 323 320 315 313 318 313 313 316 304 298 314 320 287 255 250 262 248 244 256 269 268 267 266 262 261 261 264 259 251 251 243 238 239 239 243 243 241 249 252 236 241 256 264 269 260 262 265 253 232 218 214 212
1 359 2 1 2 4 6 7 2 2 2 2 360 354 350 345 340 336 338 339 341 342 340 343 342 340 344 340 342 341 334 339 344 336 330 333 327 323 316 312 316 308 304 311 308 297 304 314 289 256 241 244 245 245 238 257 264 255 253 261 271 273 270 266 258 257 256 254 253 246 240 239 239 245 257 237 239 248 254 264 268 279 281 260 240 226 218 216
360 359 0 1 7 8 7 4 360 0 359 359 357 351 348 344 339 336 339 342 343 345 340 341 341 343 343 337 344 343 335 339 336 335 343 342 336 334 327 319 320 314 304 297 300 296 290 301 289 264 247 247 248 247 226 215 245 241 254 264 270 272 273 277 264 250 252 256 258 249 240 247 245 247 263 248 239 246 258 271 274 276 275 258 244 232 222 219
1 0 2 5 9 8 4 1 358 356 354 355 352 347 345 341 338 335 338 342 341 340 336 340 344 343 338 335 346 339 330 336 335 344 357 350 342 340 338 334 329 324 314 295 290 289 282 283 289 291 277 252 243 246 231 221 245 268 284 281 274 280 278 273 268 258 253 251 244 239 244 250 241 226 250 249 240 246 254 264 270 270 268 258 245 233 225 223
0 1 5 8 10 5 1 359 355 352 351 350 346 343 340 336 335 332 336 339 335 333 335 342 344 339 334 329 321 314 337 341 342 344 341 340 342 338 335 337 333 329 322 303 286 286 283 276 290 299 290 264 241 241 234 235 248 263 281 288 282 289 283 263 259 260 261 254 236 232 248 252 227 211 234 240 232 231 233 237 256 270 268 261 247 232 224 223
0 4 8 9 7 2 359 356 351 349 348 345 342 339 335 331 330 330 334 334 329 332 338 343 341 336 333 325 316 338 348 344 338 331 319 319 323 325 325 327 327 323 321 309 288 285 284 275 287 290 283 297 267 225 236 241 242 246 257 278 283 288 279 256 249 248 246 259 236 220 249 247 222 228 234 238 236 231 235 243 254 265 268 266 257 238 224 220
3 7 10 9 4 360 356 352 348 347 346 343 341 336 331 328 328 331 336 330 327 337 342 342 340 336 332 327 346 358 352 343 340 333 321 314 309 310 314 318 322 319 313 308 296 288 285 273 278 284 283 291 274 261 294 267 240 237 237 249 271 287 272 246 238 238 232 245 229 188 240 242 227 235 233 237 242 241 247 249 249 254 260 262 261 252 233 222
5 8 8 6 3 358 352 348 346 346 345 344 341 336 331 329 329 336 337 325 334 342 343 348 345 339 331 334 1 358 350 346 344 337 328 320 310 308 309 313 323 325 309 302 301 291 286 273 269 282 281 278 285 287 296 306 247 214 207 220 232 251 256 232 215 215 223 238 218 193 245 247 234 236 230 234 237 237 244 246 245 245 250 254 254 255 245 231
5 7 5 4 1 355 349 346 344 345 347 345 343 338 333 333 335 343 341 335 345 344 350 5 352 340 331 346 357 351 349 346 343 336 330 325 318 315 314 316 324 328 313 301 300 291 286 275 262 272 278 278 295 295 278 270 296 183 196 218 203 229 252 253 225 207 214 231 208 200 247 252 244 241 231 230 227 226 233 241 243 240 241 245 247 249 250 242
4 5 4 3 358 353 349 346 345 348 349 348 347 341 334 335 343 356 8 353 348 347 11 16 356 342 325 350 351 349 348 344 343 341 336 334 327 321 321 320 323 323 314 307 299 285 276 267 255 254 268 278 281 275 268 242 234 203 211 228 198 219 245 258 247 215 214 223 201 208 239 255 247 238 234 230 220 220 225 235 238 236 236 238 240 244 246 247
360 3 1 1 357 352 349 349 350 352 352 352 350 344 338 341 356 37 27 357 352 357 28 16 357 341 260 351 350 348 345 344 350 355 355 355 338 326 324 319 318 312 309 308 293 275 261 255 254 245 243 256 247 249 256 232 210 206 213 244 239 222 235 237 240 220 213 220 213 214 234 245 248 250 233 223 218 219 219 228 233 232 233 234 236 238 240 242
355 359 358 0 358 351 351 353 354 355 354 354 353 349 348 352 19 56 22 4 16 43 33 10 5 6 273 340 344 340 340 343 357 4 2 1 351 338 328 316 311 307 309 312 283 259 242 235 239 243 228 226 233 235 244 248 232 215 204 218 241 241 251 244 243 230 206 215 221 218 234 243 245 266 254 220 214 218 217 222 230 228 225 233 235 233 236 238
351 354 355 359 359 352 353 355 357 358 354 355 357 355 358 7 39 54 28 32 41 50 25 350 2 31 278 324 335 336 339 345 358 3 359 358 355 344 331 313 306 306 312 336 280 221 199 216 231 230 252 238 234 239 252 280 289 250 228 221 217 222 250 251 248 259 220 218 224 221 235 245 243 245 252 248 220 220 225 223 227 225 223 235 237 232 234 237
348 352 351 354 359 355 353 356 359 358 355 358 358 359 14 14 26 19 13 35 37 24 359 343 343 315 308 327 336 339 343 349 356 358 355 353 350 342 337 319 312 315 273 274 276 231 177 215 235 223 235 225 218 264 271 290 294 277 258 237 213 203 247 257 251 279 319 240 230 224 233 241 241 235 231 244 238 219 224 221 226 228 227 228 228 235 243 244
344 347 346 352 359 357 354 356 359 359 360 359 358 17 47 26 26 346 348 12 29 16 7 357 344 329 335 340 342 344 343 342 348 354 353 347 346 344 342 338 330 330 279 283 279 295 345 246 247 234 245 213 170 243 294 304 295 279 244 219 216 208 249 266 254 285 352 325 241 234 235 240 239 231 214 234 242 226 217 211 220 230 231 225 225 237 247 249
339 337 339 346 354 356 355 356 359 1 2 357 5 39 62 42 39 357 332 329 341 9 7 356 349 345 350 350 347 345 339 330 341 351 352 342 344 346 330 330 320 286 303 313 298 294 285 258 254 224 201 175 178 209 256 308 301 274 243 212 223 208 254 276 274 311 349 342 263 254 240 245 244 235 218 222 235 238 232 224 222 229 234 229 225 231 235 238
335 331 331 338 346 353 354 357 1 2 2 3 17 44 55 39 20 355 332 310 296 346 2 355 352 349 354 356 348 343 338 316 322 339 347 341 341 337 315 310 292 294 308 306 296 290 268 271 281 246 190 193 232 229 200 273 288 246 232 232 233 177 113 255 282 336 338 286 258 283 263 259 256 242 229 226 229 234 239 243 240 234 237 236 229 227 227 228
336 329 325 329 337 348 354 359 2 2 6 15 28 41 36 16 1 343 337 310 264 335 355 354 355 355 355 353 347 342 332 313 311 330 344 340 336 333 313 299 310 299 298 293 276 264 266 274 312 345 237 214 243 255 212 236 263 246 234 241 238 189 175 233 303 345 334 321 317 339 301 270 243 222 227 230 229 230 234 242 248 243 239 241 238 232 230 228
337 332 330 332 331 342 356 3 4 4 10 22 32 29 8 345 345 343 348 23 258 330 353 1 356 358 355 350 348 340 318 317 332 336 342 342 336 331 310 311 318 280 295 307 292 266 273 271 262 272 246 224 233 231 209 213 267 307 266 279 265 216 203 273 349 7 358 333 356 17 303 262 235 213 219 211 210 216 224 231 242 246 241 238 239 237 237 235
342 339 339 340 335 342 359 11 9 8 12 20 26 12 349 329 336 334 353 62 349 325 350 356 351 356 352 348 347 345 321 332 347 348 349 349 342 330 308 316 273 264 299 301 303 268 285 299 264 235 217 202 205 213 191 161 132 312 230 323 291 222 193 238 334 17 83 255 314 46 40 271 331 284 258 221 203 204 204 212 232 245 247 238 236 238 238 238
346 342 340 342 345 355 14 28 13 14 17 8 11 355 332 322 333 319 355 50 4 325 337 343 347 351 347 346 353 3 331 323 343 360 358 350 346 340 302 317 281 275 297 278 319 245 279 318 331 200 204 195 203 216 190 166 141 224 184 81 18 233 218 218 203 201 217 270 300 50 72 276 300 281 270 236 226 228 210 207 217 234 246 246 243 243 242 242
349 347 346 355 9 14 26 30 14 18 20 4 358 344 326 327 332 329 81 74 332 328 329 335 346 344 344 350 5 16 341 321 338 356 359 2 1 351 271 308 309 276 301 283 294 31 183 309 1 14 325 193 210 216 188 186 185 182 170 138 78 59 231 205 182 197 207 283 282 299 12 273 272 268 269 220 220 249 239 227 226 225 238 247 251 251 251 251
355 358 5 17 24 19 22 23 12 12 11 360 356 344 331 330 327 58 75 85 296 340 339 339 346 341 344 351 8 7 354 349 339 341 359 19 12 1 261 284 311 284 305 258 257 305 259 274 345 341 315 203 244 240 187 187 207 151 146 135 111 79 359 145 157 170 114 120 245 260 207 217 270 255 244 258 216 231 245 245 247 239 240 247 252 255 258 260
1 14 22 24 23 19 18 12 4 3 359 354 353 346 338 330 360 71 43 338 273 342 327 340 347 337 345 350 356 358 355 340 342 347 360 12 14 18 357 286 311 304 298 257 262 292 286 292 307 283 301 286 256 301 290 210 275 97 108 90 95 97 63 76 100 103 82 89 239 239 202 182 269 236 182 221 221 208 223 253 265 261 256 257 259 261 263 264
4 21 25 23 21 20 16 358 354 354 345 346 345 341 334 328 57 87 54 278 276 336 332 347 348 341 350 0 326 346 345 324 347 1 359 354 11 21 20 357 339 337 334 346 337 318 311 325 317 272 312 340 325 354 4 359 357 62 96 100 139 175 89 84 25 71 102 251 240 224 197 179 236 251 204 256 281 246 220 231 247 256 257 258 261 263 266 267
359 11 16 18 19 12 7 359 352 343 329 336 336 331 60 49 27 96 256 322 337 324 333 329 334 338 338 339 318 334 331 320 349 5 352 340 6 15 28 34 353 347 7 355 342 335 328 319 332 316 345 26 20 351 357 22 25 28 98 111 118 22 53 138 205 102 189 252 270 209 178 183 241 242 243 266 285 279 250 246 251 255 256 256 259 261 264 269
352 2 6 12 18 7 358 354 345 330 318 327 328 335 87 75 22 223 264 334 261 273 318 290 316 326 325 343 344 330 324 313 350 356 346 349 11 16 36 31 15 24 358 333 336 348 339 306 351 3 4 11 24 30 358 358 21 17 22 97 117 132 348 226 201 99 226 299 340 196 166 235 279 241 220 231 247 248 244 251 256 258 259 260 264 266 268 271
349 4 8 8 10 357 350 346 331 323 321 325 333 45 66 70 246 242 286 274 248 298 324 290 312 325 358 11 330 332 344 303 350 358 347 357 9 9 18 16 20 24 327 323 357 10 356 310 352 20 334 336 9 29 298 234 245 257 226 108 100 117 263 254 144 77 346 337 345 9 148 205 232 244 228 226 252 269 263 265 269 276 281 284 291 300 304 307
354 6 8 359 355 345 344 342 325 327 327 326 17 68 79 147 245 276 249 256 269 324 307 309 348 356 359 345 315 353 19 295 344 358 347 5 13 358 2 359 8 13 354 351 357 16 351 268 293 338 315 320 359 348 295 206 293 265 243 95 89 298 227 220 195 175 123 23 328 191 215 224 209 293 316 278 318 358 5 10 12 5 1 1 359 358 358 353
1 9 3 348 347 348 350 342 321 329 329 339 59 63 158 190 193 183 204 279 310 328 318 333 29 39 346 328 324 348 4 261 335 348 341 357 356 356 11 349 358 17 14 352 347 358 341 281 304 340 327 305 347 335 326 12 338 292 14 59 243 235 143 88 310 196 114 100 262 158 227 274 297 313 337 23 44 31 24 27 32 24 19 17 8 4 4 1
3 28 12 352 1 17 9 339 324 333 339 43 86 103 220 200 173 185 243 336 299 334 10 352 9 51 348 319 322 335 337 324 348 2 349 350 347 353 7 346 358 18 9 335 357 28 335 295 318 360 327 317 339 342 340 38 26 360 352 318 294 50 104 81 321 347 61 205 268 164 215 258 349 280 341 23 32 24 16 14 18 14 13 8 357 356 358 360
354 50 17 11 25 30 20 350 334 339 8 60 79 122 194 209 212 212 289 343 324 10 52 335 281 84 59 294 296 326 333 338 359 7 340 336 350 4 16 351 351 4 359 352 20 13 328 296 304 53 328 319 340 5 11 7 24 23 281 308 343 46 15 360 38 4 7 314 311 280 229 255 166 255 353 9 5 8 8 5 8 2 356 350 346 350 353 354
340 181 19 17 30 36 39 28 356 24 53 70 87 189 194 246 270 269 320 334 208 182 17 226 259 35 92 235 271 311 332 336 344 350 348 356 336 5 28 3 341 354 355 7 50 301 335 333 287 346 349 326 335 24 10 340 353 347 320 357 28 29 320 329 79 38 42 297 311 343 349 317 258 236 11 322 323 5 12 3 2 346 339 341 342 345 348 350
355 112 26 16 49 57 53 54 53 59 64 91 171 218 233 258 289 331 11 360 257 198 245 213 201 337 236 249 271 287 319 323 327 324 253 273 314 2 30 14 350 348 346 359 42 310 350 23 287 313 346 342 325 21 36 339 339 352 12 24 13 348 339 3 18 67 72 360 335 355 327 274 246 200 187 228 278 24 18 357 350 339 337 341 344 346 347 347
39 73 11 10 52 58 57 63 52 56 80 125 172 226 302 258 308 354 18 8 336 288 245 207 167 201 244 270 287 268 300 310 314 301 263 258 309 5 29 20 9 345 341 360 20 355 347 355 301 307 337 340 298 308 328 247 245 338 36 32 10 355 17 17 356 24 31 360 346 356 291 267 240 184 179 215 305 9 11 357 343 344 344 343 345 348 348 346
57 63 356 9 30 21 55 67 35 43 109 100 307 279 305 338 11 1 5 7 352 334 330 291 195 229 260 294 308 300 325 308 266 246 241 239 254 240 5 15 11 3 359 340 311 315 145 346 304 286 297 293 286 301 334 277 182 103 55 37 15 7 42 47 328 334 353 341 10 98 260 274 266 165 149 77 360 347 353 358 348 343 345 343 342 343 342 341
52 39 356 7 14 22 66 59 9 16 72 315 300 273 293 338 39 18 3 12 8 342 346 349 213 334 360 7 323 307 342 319 251 243 275 256 257 243 357 9 7 7 5 330 300 349 30 50 310 296 295 298 296 320 5 5 76 71 23 17 37 38 44 39 257 291 305 258 277 167 241 276 292 76 51 357 347 338 338 350 349 339 338 337 337 337 338 338
38 30 17 12 360 356 79 101 49 13 292 321 343 345 338 360 62 40 353 349 6 345 348 340 324 13 11 347 332 303 333 330 264 304 330 228 290 317 345 357 359 2 351 309 316 341 343 180 25 340 335 337 337 347 349 342 20 49 358 3 41 29 10 341 303 7 321 248 233 188 246 264 273 2 343 326 327 325 324 336 340 333 331 332 333 335 336 337
16 22 24 21 17 44 98 124 137 149 245 354 2 347 356 29 56 40 335 291 18 14 319 301 326 48 30 349 351 346 337 331 294 335 352 304 301 312 333 343 345 339 308 303 308 308 294 238 236 27 8 309 309 300 297 324 339 344 315 334 354 346 327 317 346 350 266 243 64 205 246 273 290 312 317 308 309 317 323 330 332 329 328 330 332 334 336 336
23 12 3 17 36 68 90 99 102 116 143 68 12 330 21 338 332 1 360 121 25 12 15 332 340 35 36 14 8 340 326 324 305 319 325 306 288 311 334 331 329 324 317 328 346 356 181 231 234 225 228 229 249 264 274 311 309 296 301 310 315 307 280 256 245 239 217 79 300 242 240 268 286 296 302 301 308 322 330 332 331 330 330 330 330 331 332 332
35 26 347 8 33 63 72 60 53 66 143 136 208 243 95 10 319 344 2 128 2 1 41 44 26 45 39 29 26 300 303 322 314 293 290 292 266 299 323 319 314 334 352 3 12 21 133 298 256 234 248 250 256 275 289 304 295 289 297 300 294 289 275 244 234 232 200 52 269 254 245 266 280 289 296 298 309 327 331 330 329 327 327 327 327 327 328 330
41 99 73 30 348 60 53 27 31 45 79 143 157 176 93 59 360 341 310 334 354 9 82 40 35 77 101 86 115 282 310 325 315 289 279 301 307 319 324 313 325 25 30 25 20 36 148 275 258 226 267 273 272 285 294 295 287 282 286 287 284 277 256 239 240 237 219 229 254 270 290 281 278 286 291 297 316 329 325 328 332 328 327 330 328 326 327 332
56 97 82 31 312 201 213 320 355 31 24 172 158 208 144 143 174 264 275 341 350 355 72 81 223 157 158 152 152 214 281 299 301 288 268 301 317 322 324 307 352 31 34 29 10 22 67 267 286 285 295 292 286 284 282 282 282 280 277 270 264 259 248 244 251 246 233 241 256 275 283 272 270 278 289 306 331 343 339 342 342 335 332 333 331 328 331 340
52 44 359 113 111 128 30 326 5 51 13 52 212 257 200 159 196 260 228 191 271 321 18 156 206 218 202 186 179 210 226 227 257 265 258 299 315 290 289 276 273 3 13 13 341 358 17 321 338 354 318 291 281 275 272 274 276 277 278 266 257 259 259 256 260 255 245 251 256 262 268 270 280 309 325 335 349 359 354 347 342 335 331 330 333 338 344 348
28 15 15 108 105 342 319 331 72 83 348 346 200 227 194 170 194 206 242 227 214 234 264 155 165 245 219 196 204 235 251 249 246 254 257 262 264 251 243 259 283 331 348 343 318 350 15 320 343 11 338 287 271 287 298 295 284 278 275 267 260 261 258 247 246 228 216 243 257 260 263 276 325 21 14 351 348 355 353 342 336 329 327 331 342 354 354 348
348 352 343 16 359 271 237 49 78 87 289 240 199 208 200 178 174 157 286 258 221 226 237 189 159 4 300 251 254 264 268 266 264 270 271 265 262 257 254 259 269 278 286 307 321 319 196 284 327 350 309 280 287 316 312 311 307 290 263 245 238 245 257 262 265 244 223 229 253 266 269 308 2 18 16 353 341 340 340 336 328 320 321 335 350 352 350 345